Miscellaneous Local Product
Issued by NWS Hastings, NE

Home | Current Version | Previous Version | Text Only | Print | Product List | Glossary On
Versions: 1 2 3 4 5 6 7 8 9 10 11 12 13 14 15 16 17 18 19 20 21 22 23 24 25 26 27 28 29 30 31 32 33 34 35 36 37 38 39 40 41 42 43 44 45 46 47 48 49 50
000
AXUS43 KGID 270902
MISGRI

GID CWA HOURLY WEATHER ROUNDUP
NATIONAL WEATHER SERVICE HASTINGS NE
400 AM CDT WED AUG 27 2014

NOTE: "FAIR" INDICATES FEW OR NO CLOUDS BELOW 12,000 FEET WITH NO
SIGNIFICANT WEATHER AND/OR OBSTRUCTIONS TO VISIBILITY.

...SOUTH CENTRAL NEBRASKA...

CITY           SKY/WX    TMP DP  RH WIND       PRES   REMARKS
GRAND ISLAND   CLOUDY    68  66  93 NE5       30.10F
HASTINGS       CLOUDY    69  65  86 SE9       30.09F
KEARNEY        CLOUDY    70  66  88 SW12      30.15R THUNDER
ORD            CLOUDY    67  65  93 E3        30.11S
YORK           MOCLDY    66 N/A N/A E6        30.10S
AURORA         CLOUDY    67  67 100 SE5       30.09F
LEXINGTON      TSTM      70  69  96 W6        30.14S
HOLDREGE       TSTM      67  65  94 CALM      30.13F
HEBRON         CLOUDY    68  65  90 CALM      30.09S

...NEBRASKA PANHANDLE...

CITY           SKY/WX    TMP DP  RH WIND       PRES   REMARKS
CHADRON        PTCLDY    61  58  90 CALM      30.15R
ALLIANCE       PTCLDY    63  61  93 CALM      30.15F
SCOTTSBLUFF    PTCLDY    63  62  97 E7        30.14S
SIDNEY         MOCLDY    65  57  75 S9        30.15F

...WESTERN AND NORTH CENTRAL NEBRASKA...

CITY           SKY/WX    TMP DP  RH WIND       PRES   REMARKS
VALENTINE      CLOUDY    68  66  93 S10       30.12S
AINSWORTH      CLOUDY    66  66  99 SE9       30.13F FOG
ONEILL         CLOUDY    66  65  97 SE6       30.14F
BROKEN BOW     CLOUDY    69  68  96 S9        30.14R FOG
IMPERIAL       CLOUDY    66  62  87 NE6       30.12S
NORTH PLATTE   LGT RAIN  66  62  87 S3        30.14F
MCCOOK         CLOUDY    67  65  93 N3        30.11F

...EASTERN NEBRASKA...

CITY           SKY/WX    TMP DP  RH WIND       PRES   REMARKS
NORFOLK        CLOUDY    66  63  90 E5        30.12F
SO SIOUX CITY  CLOUDY    65  60  84 NE5       30.14S
TEKAMAH        CLOUDY    66  64  93 N5        30.12S
COLUMBUS       MOCLDY    64  63  94 E6        30.11F
ALBION         CLOUDY    66  63  89 E5        30.12S
OMAHA EPPLEY   MOCLDY    70  64  81 VRB3      30.12R
OFFUTT AFB     PTCLDY    68  68  99 E5        30.10S
MILLARD        MOCLDY    70  65  84 CALM      30.11S
LINCOLN        CLOUDY    69  66  90 E6        30.10S
NEBRASKA CITY  TSTM      69  69 100 NE7       30.10S
BEATRICE       MOCLDY    69  68  98 NE5       30.09S
FALLS CITY     MOCLDY    72  70  93 N7        30.06F

...NORTHERN KANSAS...

CITY           SKY/WX    TMP DP  RH WIND       PRES   REMARKS
GOODLAND       CLOUDY    65  63  93 S6        30.15R
HILL CITY      CLOUDY    71  66  84 N10       30.10F
NORTON         SUNNY     68  64  88 E5        30.10R
PHILLIPSBURG   TSTM      72  72 100 N5        30.11R
SMITH CENTER   TSTM      70  66  88 N6        30.12R
BELOIT         PTCLDY    73  68  83 S3        30.07R
HAYS           CLOUDY    72  64  78 S7        30.09S
RUSSELL        CLOUDY    74  67  78 S9        30.07F
CONCORDIA      CLOUDY    72  69  90 N9        30.08S THUNDER
SALINA         CLOUDY    76  68  76 SE7       30.05F
TOPEKA         CLOUDY    78  75  90 E6        30.06S



USA.gov is the U.S. government's official web portal to all federal, state and local government web resources and services.